• Join FlightAware (Why Join?)
  • Login
  • US Flag 
Rudolph Flight #1: Arrived! 
09:49PM EST


 

Airport Tracker/Info


-or-


 

Live Flight TrackerFlight Track Log ✈ KAP46 ✈ 23-Jun-2013 ✈ KALB - KMSS

Flight Track Log - Related Links

Times and Time Zones

All times are in EDT time to prevent confusion due to time zone crossing. See the KAP46 flight status page for this flight to view local times or setup timezone preferences in your user account.

Time Position Orientation Groundspeed Altitude Reporting Facility
EDT Latitude Longitude Course Direction KTS MPH feet Rate Location/Type
07:38PM 42.7742 -73.7611 28° Northeast 125 144 1,600  Level Boston Center
07:39PM 42.8053 -73.7731 344° North 118 136 2,400 720 Climbing Boston Center
07:40PM 42.8342 -73.7878 340° North 125 144 3,000 660 Climbing Boston Center
07:41PM 42.8675 -73.8056 339° North 133 153 3,700 540 Climbing Boston Center
07:42PM 42.9089 -73.8233 343° North 140 161 4,200 480 Climbing Boston Center
07:43PM 42.9483 -73.8414 341° North 147 169 4,700 480 Climbing Boston Center
07:44PM 42.9875 -73.8622 339° North 154 177 5,200 480 Climbing Boston Center
07:45PM 43.0269 -73.8800 342° North 153 176 5,700 420 Climbing Boston Center
07:46PM 43.0664 -73.9008 339° North 154 177 6,100 360 Climbing Boston Center
07:47PM 43.1056 -73.9217 339° North 157 181 6,500 420 Climbing Boston Center
07:48PM 43.1700 -73.9489 343° North 171 197 7,200 420 Climbing Boston Center
07:49PM 43.2031 -73.9667 339° North 157 181 7,600 360 Climbing Boston Center
07:50PM 43.2464 -73.9878 340° North 151 174 8,000 180 Climbing Boston Center
07:51PM 43.2858 -74.0058 342° North 151 174 8,000  Level Boston Center
07:52PM 43.3333 -74.0300 340° North 156 180 8,000  Level Boston Center
07:53PM 43.3706 -74.0481 341° North 161 185 8,000  Level Boston Center
07:54PM 43.4203 -74.0694 343° North 161 185 8,000  Level Boston Center
07:55PM 43.4617 -74.0933 337° Northwest 161 185 8,000  Level Boston Center
07:56PM 43.4969 -74.1117 339° North 161 185 8,000  Level Boston Center
07:57PM 43.5486 -74.1358 341° North 166 191 8,000  Level Boston Center
07:58PM 43.5919 -74.1600 338° Northwest 166 191 8,000  Level Boston Center
07:59PM 43.6356 -74.1814 340° North 166 191 8,000  Level Boston Center
08:00PM 43.6789 -74.2028 340° North 166 191 8,000  Level Boston Center
08:01PM 43.7203 -74.2211 342° North 161 185 8,000  Level Boston Center
08:02PM 43.7617 -74.2425 340° North 161 185 8,000  Level Boston Center
08:03PM 43.8072 -74.2642 341° North 161 185 8,000  Level Boston Center
08:04PM 43.8506 -74.2883 338° Northwest 161 185 8,000  Level Boston Center
08:05PM 43.8919 -74.3069 342° North 166 191 8,000 -60 Level Boston Center
08:06PM 43.9333 -74.3283 340° North 166 191 7,900 -60 Descending Boston Center
08:07PM 43.9744 -74.3500 339° North 161 185 7,900  Level Boston Center
08:08PM 44.0181 -74.3686 343° North 161 185 7,900  Level Boston Center
08:09PM 44.0614 -74.3961 335° Northwest 161 185 7,900  Level Boston Center
08:10PM 44.1028 -74.4147 342° North 161 185 7,900  Level Boston Center
08:11PM 44.1461 -74.4364 340° North 161 185 7,900  Level Boston Center
08:12PM 44.1875 -74.4581 339° North 161 185 7,900  Level Boston Center
08:13PM 44.2328 -74.4800 341° North 166 191 7,900  Level Boston Center
08:14PM 44.2742 -74.4986 342° North 166 191 7,900 -120 Level Boston Center
08:15PM 44.3194 -74.5264 336° Northwest 166 191 7,700 -360 Descending Boston Center
08:16PM 44.3753 -74.5486 344° North 166 191 7,200 -540 Descending Boston Center
08:17PM 44.4228 -74.5767 337° Northwest 166 191 6,700 -540 Descending Boston Center
08:18PM 44.4703 -74.6017 339° North 172 198 6,200 -480 Descending Boston Center
08:19PM 44.5178 -74.6267 339° North 172 198 5,800 -480 Descending Boston Center
08:20PM 44.5672 -74.6489 342° North 172 198 5,300 -600 Descending Boston Center
08:21PM 44.6147 -74.6739 339° North 172 198 4,700 -600 Descending Boston Center